Location: Asheville, NC
(35.6000°N, 82.5500°W)
Time: 23:41:21
(UTC-04:00)

CUTE 1.7 + AOD 2 - Pass Details

Date: 11 January 2018
Orbit: 594 x 613 km, 97.5° (Epoch: 17 June)

Event Time Altitude Azimuth Distance (km) Brightness Sun altitude
Rises 18:34:51 0° 162° (SSE) 2,862 ? -11.8°
Reaches altitude 10° 18:37:02 10° 160° (SSE) 1,962 ? -12.2°
Maximum altitude 18:41:17 72° 77° (ENE) 647 ? -13.0°
Drops below altitude 10° 18:45:33 10° 353° (N) 1,972 ? -13.8°
Sets 18:47:45 0° 351° (N) 2,879 ? -14.2°
